Simultaneous Nadir Overpasses (SNOs) Predictions

Prediction of SNOs between LANDSAT-8 and METOP-B Satellite Orbit:

Table of predicted SNOs for the next 14.0 days since TLE Epoch: 10/19/2014
Index Date (LANDSAT-8) Time (LANDSAT-8) Lat,Lon (LANDSAT-8) SZA (LANDSAT-8 ) Date (METOP-B) Time (METOP-B) Lat,Lon (METOP-B) SZA (METOP-B ) Distance(km) Time Diff (sec)
1 10/20/2014 04:32:25 81.12, 151.76 93.79 10/20/2014 04:31:36 81.12, 151.77 93.77 0.36 49
2 10/20/2014 05:21:51 -81.14, -40.28 86.15 10/20/2014 05:22:15 -81.14, -40.45 86.17 2.95 24
3 10/23/2014 00:06:40 81.12,-141.88 94.79 10/23/2014 00:05:55 81.12,-141.92 94.76 0.84 45
4 10/23/2014 00:56:06 -81.14, 26.10 85.16 10/23/2014 00:56:33 -81.14, 26.25 85.12 2.74 27
5 10/25/2014 19:40:54 81.13, -75.32 95.79 10/25/2014 19:40:13 81.12, -75.34 95.76 0.68 41
6 10/25/2014 20:30:20 -81.15, 92.67 84.16 10/25/2014 20:30:51 -81.15, 92.86 84.12 3.21 31
7 10/28/2014 15:15:07 81.12, -8.92 96.73 10/28/2014 15:14:30 81.12, -8.87 96.72 0.99 37
8 10/28/2014 16:04:33 -81.15, 159.08 83.21 10/28/2014 16:05:09 -81.14, 158.99 83.20 1.58 36
9 10/31/2014 10:49:21 81.11, 57.30 97.62 10/31/2014 10:48:49 81.11, 57.13 97.59 2.85 32




NCC Satellite Simultaneous Nadir Overpasses (SNOs) Prediction Service
